2018-102H (43838 NORAD) Tracking and Keplerian Element Data

This shows tracking and keplerian element data for the satellite.

Feedback or suggestion? Click here.




ElementValue
Catalog43838
Name2018-102H
Epoch Orbit452
Epoch Day6.21067884
Epoch Year2019
RAAN83.4631
Inclination97.623
Eccentricity0.0017397
Argument of Perigee173.8932
Mean Anonmoly266.9494
Mean Motion15.08804501
Decay Rate8.19E-06
L11 43838U 18102H 19006.21067884 .00000819 00000-0 56045-4 0 9992
L22 43838 97.6230 83.4631 0017397 173.8932 266.9494 15.08804501 4523

Live tracking and technical data element details for 2018-102H (NORAD 43838). 2018-102H can be tracked NOW for your location showing map with azimuth and elevation plus other details from your city location.

Track the satellite on the map from your city or location and see movement details for azimuth, elevation, latitude, longitude, range, height, and movement on the map or in text.







IsCatalogInMostPopularTable: catalog: 43838, numindb: 29
Update: records affected: 1



GetName: 43838 2018-102H

Hit Count: updated at: Wed, 23 Jan 2019 02:46:56 GMT